Voltar ao catálogo

COSMOS 970 DEB

AtivoLEO
NORAD 10888·DEBRIS·🇷🇺 Russia

Lançado Dec 21, 1977 de Baikonur Cosmodrome

Loading…

Próximas Passagens (próximas 24 horas)

TLE

AtualizadoSource: Space-Track

Época: Sep 14, 2026, 19:10 UTC

1 10888U 77121AK  26257.79913987  .00000111  00000-0  23314-3 0  9997
2 10888  65.5145 171.1365 0129211 235.0854 157.7501 13.62531552417438

Acompanhe COSMOS 970 DEB em tempo real com AllMySat

Download on the App Store